Precipitable_Water
0.75 0.88 0.95 0.94 0.92 0.98 1.07 1.15 1.17 1.18 1.15 1.06 1.03 1.08 1.23 1.35 1.41 1.51 1.51 1.47 1.43 1.40 1.45 1.47 1.40 1.34 1.33 1.30 1.24 1.11 1.03 1.01 0.98 0.91 0.89 0.90 0.92 0.94 0.88 0.91 0.92 0.90
0.69 0.74 0.85 0.94 0.96 0.94 0.98 1.11 1.22 1.26 1.27 1.26 1.24 1.26 1.37 1.45 1.47 1.43 1.43 1.45 1.38 1.28 1.31 1.42 1.42 1.36 1.33 1.30 1.27 1.21 1.11 1.03 1.01 1.05 0.99 0.96 0.96 0.97 0.94 0.91 0.93 0.96
0.71 0.70 0.73 0.75 0.79 0.83 0.84 0.93 1.07 1.18 1.24 1.33 1.38 1.36 1.36 1.35 1.35 1.34 1.24 1.26 1.29 1.28 1.30 1.39 1.42 1.38 1.34 1.32 1.29 1.24 1.21 1.16 1.09 1.07 1.05 1.04 1.03 0.98 0.95 0.93 0.92 0.93
0.70 0.71 0.72 0.74 0.77 0.75 0.75 0.74 0.82 0.99 1.14 1.18 1.22 1.24 1.24 1.24 1.25 1.32 1.24 1.15 1.13 1.19 1.26 1.33 1.36 1.36 1.35 1.33 1.31 1.25 1.20 1.19 1.22 1.21 1.11 1.07 1.07 1.02 0.96 0.94 0.90 0.88
0.70 0.71 0.73 0.73 0.75 0.77 0.76 0.72 0.68 0.74 0.90 1.06 1.16 1.22 1.24 1.22 1.20 1.18 1.22 1.18 1.09 1.10 1.16 1.19 1.30 1.36 1.36 1.34 1.32 1.26 1.21 1.15 1.17 1.20 1.16 1.10 1.08 1.07 1.02 0.96 0.90 0.84
0.71 0.72 0.72 0.73 0.75 0.77 0.78 0.75 0.70 0.67 0.70 0.88 1.07 1.19 1.23 1.25 1.23 1.21 1.22 1.10 1.10 1.10 1.11 1.13 1.21 1.27 1.30 1.31 1.31 1.29 1.26 1.20 1.15 1.14 1.15 1.14 1.13 1.13 1.10 1.04 0.96 0.89
0.73 0.72 0.69 0.73 0.73 0.73 0.74 0.78 0.80 0.75 0.69 0.71 0.88 1.07 1.18 1.25 1.21 1.28 1.27 1.29 1.09 1.05 1.05 1.06 1.07 1.11 1.21 1.26 1.26 1.27 1.30 1.27 1.20 1.12 1.09 1.13 1.16 1.17 1.17 1.13 1.08 1.01
0.75 0.78 0.77 0.75 0.72 0.73 0.73 0.72 0.75 0.78 0.77 0.72 0.68 0.81 1.05 1.12 1.20 1.21 1.24 1.32 1.21 1.06 1.02 1.02 1.03 1.04 1.12 1.14 1.15 1.23 1.26 1.27 1.21 1.14 1.08 1.06 1.11 1.13 1.20 1.23 1.21 1.12
0.73 0.74 0.76 0.77 0.77 0.76 0.73 0.74 0.75 0.75 0.78 0.75 0.71 0.68 0.79 0.99 1.11 1.18 1.30 1.27 1.31 1.18 1.07 1.02 1.02 1.01 1.04 1.05 1.07 1.15 1.18 1.18 1.17 1.14 1.09 1.05 1.03 1.07 1.16 1.26 1.23 1.17
0.75 0.74 0.74 0.75 0.75 0.78 0.78 0.78 0.78 0.77 0.78 0.77 0.76 0.74 0.69 0.78 0.99 1.08 1.16 1.14 1.24 1.29 1.14 0.97 0.95 0.97 1.00 1.00 1.00 1.05 1.13 1.16 1.13 1.11 1.12 1.11 1.08 1.09 1.16 1.23 1.23 1.18
0.76 0.76 0.75 0.74 0.73 0.74 0.77 0.81 0.81 0.80 0.79 0.79 0.78 0.77 0.76 0.75 0.81 0.95 1.02 1.06 1.17 1.25 1.24 1.19 0.97 0.93 0.96 0.97 0.98 1.05 1.14 1.19 1.14 1.07 1.07 1.10 1.11 1.12 1.16 1.23 1.26 1.23
0.76 0.76 0.76 0.75 0.75 0.75 0.75 0.77 0.80 0.82 0.81 0.82 0.81 0.78 0.80 0.80 0.77 0.83 0.90 0.93 1.01 1.10 1.20 1.27 1.20 1.03 0.98 0.98 0.97 1.05 1.14 1.18 1.16 1.09 1.06 1.08 1.12 1.15 1.17 1.23 1.27 1.30
0.77 0.77 0.77 0.76 0.77 0.78 0.79 0.78 0.77 0.80 0.82 0.79 0.82 0.83 0.80 0.82 0.83 0.79 0.83 0.89 0.93 1.00 1.08 1.15 1.22 1.14 0.99 0.98 1.02 1.06 1.11 1.14 1.15 1.12 1.06 1.03 1.06 1.12 1.17 1.20 1.26 1.29
0.77 0.79 0.80 0.79 0.78 0.78 0.78 0.79 0.80 0.80 0.81 0.82 0.81 0.80 0.82 0.82 0.84 0.85 0.81 0.85 0.90 0.96 1.02 1.08 1.14 1.18 1.08 1.03 1.05 1.08 1.07 1.06 1.11 1.11 1.04 1.01 0.99 1.07 1.16 1.21 1.25 1.29
0.80 0.81 0.82 0.82 0.81 0.79 0.78 0.78 0.80 0.80 0.82 0.83 0.82 0.80 0.80 0.83 0.86 0.90 0.89 0.85 0.90 0.94 0.97 0.98 1.03 1.08 1.06 1.02 1.01 1.04 1.06 1.02 1.02 1.04 1.03 0.99 0.96 1.01 1.12 1.19 1.24 1.26
0.80 0.81 0.82 0.83 0.82 0.80 0.78 0.78 0.78 0.80 0.81 0.81 0.82 0.82 0.81 0.80 0.83 0.88 0.90 0.89 0.90 0.94 0.97 1.00 0.99 1.02 1.07 1.14 1.08 1.02 1.02 1.02 1.02 1.02 1.03 1.02 0.97 0.94 1.00 1.09 1.13 1.18
0.81 0.81 0.83 0.83 0.84 0.84 0.82 0.80 0.78 0.78 0.79 0.80 0.81 0.83 0.82 0.80 0.80 0.83 0.87 0.91 0.92 0.96 1.00 1.01 1.04 1.05 1.01 1.04 1.13 1.07 1.03 1.00 0.98 1.01 1.02 1.01 0.97 0.93 0.89 0.93 1.01 1.10
0.83 0.84 0.84 0.85 0.86 0.87 0.86 0.85 0.82 0.78 0.76 0.78 0.80 0.81 0.82 0.83 0.79 0.79 0.85 0.89 0.94 0.96 0.98 1.00 1.03 1.05 1.03 1.05 1.03 1.05 1.03 1.01 1.00 1.00 1.00 0.99 0.99 0.95 0.93 0.93 0.95 1.00
0.82 0.82 0.84 0.87 0.89 0.89 0.89 0.85 0.83 0.80 0.78 0.76 0.76 0.81 0.82 0.82 0.81 0.77 0.78 0.85 0.94 0.97 0.91 0.95 1.06 1.11 1.05 1.01 1.14 1.15 1.12 1.05 1.02 1.03 0.99 0.99 0.97 0.95 0.90 0.89 0.92 0.92
0.82 0.82 0.83 0.86 0.88 0.90 0.89 0.86 0.84 0.80 0.79 0.79 0.80 0.80 0.80 0.80 0.81 0.80 0.76 0.77 0.91 1.01 1.01 0.98 0.94 0.99 0.97 1.01 1.05 1.22 1.26 1.11 1.07 1.05 1.04 0.98 0.93 0.93 0.87 0.85 0.88 0.90
0.87 0.84 0.83 0.86 0.87 0.89 0.89 0.88 0.87 0.85 0.82 0.80 0.80 0.80 0.79 0.79 0.79 0.79 0.82 0.84 0.91 0.97 1.02 1.08 1.02 0.99 0.98 0.98 0.96 1.03 1.36 1.35 1.19 1.16 1.07 1.01 0.97 0.92 0.88 0.85 0.88 0.86
0.94 0.92 0.88 0.87 0.89 0.89 0.88 0.87 0.86 0.84 0.83 0.83 0.82 0.82 0.83 0.84 0.84 0.86 0.86 0.85 0.88 0.93 0.96 0.94 0.99 1.02 1.04 1.06 1.03 1.06 1.13 1.30 1.32 1.17 1.03 1.01 0.96 0.94 0.92 0.88 0.90 0.91
0.96 0.97 0.93 0.90 0.87 0.88 0.88 0.86 0.83 0.83 0.84 0.86 0.84 0.83 0.82 0.85 0.88 0.89 0.97 0.94 0.88 0.86 0.89 0.92 0.96 0.98 0.99 1.00 1.00 0.94 1.05 1.12 1.22 1.22 1.09 0.95 0.93 0.92 0.90 0.89 0.92 0.94
0.98 0.98 0.94 0.90 0.90 0.89 0.89 0.87 0.86 0.85 0.86 0.91 0.88 0.89 0.88 0.92 0.98 0.95 0.97 0.96 0.93 0.91 0.89 0.90 0.94 0.97 0.95 0.92 0.92 0.98 0.97 1.06 1.19 1.17 1.07 0.97 0.92 0.89 0.88 0.88 0.92 0.92
1.01 0.95 0.93 0.91 0.90 0.92 0.92 0.93 0.91 0.90 0.93 0.93 0.92 0.89 0.84 0.85 0.93 0.99 1.01 1.00 0.99 0.98 0.96 0.92 0.94 0.99 1.01 0.98 0.98 1.04 1.06 1.08 1.14 1.14 1.07 1.03 0.96 0.90 0.90 0.88 0.92 0.99
1.03 1.00 0.98 0.95 0.91 0.94 0.96 0.95 0.96 0.94 0.90 0.89 0.86 0.86 0.85 0.85 0.83 0.85 0.90 0.94 1.01 1.04 1.05 1.06 1.02 1.05 1.06 1.05 1.07 1.10 1.08 1.12 1.17 1.11 1.04 1.00 1.00 0.90 0.86 0.88 0.91 0.97
Wind_Speed
28 29 30 32 33 33 33 32 33 34 36 36 35 33 31 30 30 29 29 26 25 24 24 25 26 25 25 25 25 25 25 26 26 26 27 27 27 26 25 24 23 22
30 30 31 33 34 35 35 35 34 35 36 37 38 36 34 33 32 31 29 27 26 25 24 25 26 27 27 26 27 27 26 26 27 27 28 28 28 28 27 27 25 24
32 33 33 33 35 36 37 37 37 37 37 38 38 37 36 35 33 33 31 30 29 28 27 26 27 28 28 28 28 28 28 28 28 28 29 29 29 29 29 28 28 26
34 35 35 35 36 37 38 39 40 40 39 38 37 36 35 35 34 34 34 33 32 31 30 29 29 29 29 29 29 29 29 29 29 29 29 30 30 30 30 29 29 29
36 36 37 37 37 38 39 40 41 41 41 40 38 36 36 35 35 36 36 36 35 34 33 32 31 31 31 31 31 30 30 30 30 30 30 30 30 30 30 30 30 31
36 38 38 39 39 39 40 41 41 42 42 42 39 38 37 37 37 37 37 38 38 37 36 34 33 32 32 32 32 32 31 31 31 31 31 31 31 31 31 31 31 32
34 37 38 40 40 41 42 42 42 42 43 43 42 41 40 39 39 39 39 39 40 39 38 36 35 34 34 34 33 33 32 32 32 32 32 32 32 32 32 32 32 33
32 34 36 38 40 41 42 43 44 44 44 44 45 44 43 42 41 41 41 40 41 41 39 37 36 36 35 35 35 34 34 33 33 33 33 33 34 33 33 32 32 33
30 32 34 36 38 40 42 43 44 45 45 45 46 46 45 45 43 43 42 42 42 41 41 39 38 37 37 36 36 35 35 35 34 34 34 34 34 34 34 33 32 33
27 30 32 34 36 38 40 42 43 44 45 46 46 47 47 47 46 45 44 43 43 43 42 41 40 39 38 38 37 37 36 36 35 35 35 35 35 35 34 34 34 34
27 28 30 33 35 37 38 40 42 43 45 46 47 47 48 48 48 47 47 46 45 44 43 42 41 41 40 39 38 38 37 37 36 36 36 36 36 36 35 35 35 35
28 29 30 32 34 35 37 38 40 42 43 45 46 47 48 48 49 49 49 48 47 46 45 44 42 42 41 41 40 39 39 38 37 37 37 37 37 37 37 36 36 36
28 29 31 32 33 35 36 38 39 40 42 43 44 46 48 49 49 50 50 49 49 49 48 46 44 43 42 42 41 41 40 39 39 38 38 38 38 38 39 38 37 37
28 30 31 32 33 35 36 38 39 40 41 42 43 45 47 48 49 50 50 50 50 49 49 49 47 45 44 43 43 42 42 41 40 39 39 40 40 40 40 40 39 39
29 30 31 32 33 35 36 38 39 40 41 42 43 44 45 47 48 49 50 51 51 50 50 50 49 48 47 46 45 44 43 43 42 41 40 40 41 41 41 41 41 40
30 30 31 32 33 35 36 37 39 41 42 43 43 44 44 45 47 49 50 51 51 52 51 50 50 49 49 48 47 46 45 44 43 43 42 41 41 41 42 42 42 42
30 31 32 33 34 35 36 38 39 40 42 43 44 44 45 45 46 48 49 51 51 52 52 51 51 50 50 50 49 49 48 46 45 44 43 42 42 42 42 43 43 43
30 31 32 34 35 36 37 38 39 41 42 44 45 45 45 45 46 47 48 50 51 51 52 52 52 51 51 50 49 50 50 49 47 46 45 43 43 43 43 43 43 44
31 32 33 34 35 36 37 38 39 41 42 43 45 46 46 46 47 47 47 49 50 51 52 52 52 52 51 50 49 49 50 50 49 48 47 45 44 44 43 43 43 44
31 33 34 34 34 35 36 37 38 39 41 42 43 45 46 47 47 48 48 48 49 50 51 51 51 51 50 50 49 48 48 50 49 48 48 47 46 45 44 44 44 44
31 32 32 32 31 32 33 34 35 36 38 40 40 41 43 45 46 48 48 48 48 48 50 50 51 51 50 50 50 48 46 45 46 46 48 48 47 46 45 45 44 44
28 28 28 28 28 29 30 31 32 34 35 36 37 38 40 41 43 44 45 46 47 48 49 50 51 52 51 50 50 48 46 44 43 44 46 48 48 47 46 45 45 45
25 24 24 24 24 25 26 27 29 30 32 33 34 35 37 38 39 40 41 43 45 46 48 49 50 51 51 51 49 48 47 46 45 44 45 47 47 47 46 45 45 45
22 21 20 20 19 20 21 22 24 25 27 28 30 31 33 34 36 37 38 40 43 44 46 48 48 49 49 50 49 48 47 47 46 45 45 45 46 47 46 45 45 46
21 19 17 16 16 16 17 18 18 19 21 23 26 27 29 30 32 34 35 37 39 40 43 45 46 46 46 46 47 47 47 47 46 45 45 45 45 45 46 46 45 45
19 18 16 14 14 14 14 14 15 15 17 19 21 24 25 27 29 31 33 34 35 36 38 41 44 44 44 44 44 43 43 45 45 45 45 44 44 44 45 45 45 45
Wind_Direction
242 237 233 232 232 230 230 229 229 229 229 227 230 232 232 233 235 235 233 232 233 234 232 229 228 230 231 232 231 230 228 228 228 228 226 225 226 227 228 228 227 226
243 240 237 235 234 233 233 233 234 235 233 231 234 237 239 240 238 237 238 237 236 236 237 234 232 232 233 234 234 232 231 230 230 230 229 228 228 228 228 228 228 227
242 241 239 238 237 237 237 237 237 238 237 236 239 242 243 243 239 238 240 241 239 238 237 237 234 234 235 235 236 235 233 232 231 231 231 231 230 230 229 229 228 228
243 242 241 240 240 239 239 239 239 238 238 239 241 243 243 242 240 239 240 240 241 239 239 238 237 236 236 236 237 237 236 234 233 232 232 232 232 231 231 231 230 229
244 243 243 242 241 241 241 241 240 239 239 241 242 243 242 241 241 240 239 240 241 240 239 239 239 238 237 237 237 238 238 237 235 234 233 232 232 232 232 233 232 230
245 245 244 243 243 242 242 242 242 241 241 242 243 243 242 242 241 241 240 239 240 240 239 239 239 238 238 237 237 238 239 238 236 235 235 234 233 233 233 234 234 232
248 247 246 245 244 244 243 243 243 243 243 243 243 243 243 242 241 241 241 240 239 239 238 238 238 238 238 237 237 238 238 239 238 237 236 235 234 234 234 234 234 232
251 250 248 247 246 245 245 244 244 244 244 243 243 243 243 243 242 242 241 240 239 238 237 237 237 237 237 238 237 237 237 238 238 238 237 236 235 235 234 234 234 231
254 253 251 250 249 247 246 246 245 245 244 244 244 243 242 242 242 242 241 240 239 238 237 237 237 237 237 237 236 236 236 238 238 238 238 237 236 235 235 234 232 230
257 255 253 252 251 250 248 247 247 246 245 245 244 243 242 242 241 241 241 241 240 239 237 237 237 237 237 236 236 236 236 237 238 238 238 238 236 235 234 233 232 230
260 258 256 254 253 252 250 249 248 247 246 245 245 244 243 242 241 241 241 241 240 239 238 238 237 236 236 236 236 236 236 237 238 238 238 238 237 235 234 234 233 232
263 261 258 256 255 253 252 251 249 248 247 246 245 244 243 243 242 241 241 240 240 239 239 238 237 236 235 235 235 236 236 237 238 239 237 237 237 236 235 234 234 233
266 263 261 259 257 255 253 251 250 248 247 246 245 244 243 243 242 241 240 240 240 239 238 238 237 237 235 234 234 235 236 237 239 239 238 238 238 238 236 235 235 235
271 267 264 262 259 257 254 252 250 249 247 246 245 244 243 242 242 241 240 240 239 239 238 237 237 237 236 234 234 234 236 238 239 240 239 239 240 239 237 237 236 236
275 271 267 265 262 259 256 254 252 250 248 247 245 244 243 242 241 240 239 239 238 238 238 237 237 237 236 235 235 235 235 237 239 240 240 240 240 239 238 237 237 237
278 273 270 267 264 262 259 256 254 251 250 248 246 245 244 243 241 240 239 238 238 237 237 237 236 236 236 236 235 235 235 237 239 240 240 241 241 240 239 238 238 238
280 275 272 269 266 264 261 258 255 252 250 248 246 245 244 243 242 240 239 237 237 236 236 236 236 235 235 236 236 236 236 237 238 239 241 241 241 241 240 239 239 239
283 278 275 272 269 266 262 260 257 254 251 248 246 245 244 243 242 241 240 238 236 235 235 235 235 235 235 236 237 237 237 237 238 239 240 241 241 242 242 240 240 240
286 282 278 275 272 267 264 261 259 256 253 250 247 245 243 243 242 241 240 239 237 235 234 234 234 234 234 235 237 238 238 237 238 239 239 240 241 242 242 242 241 240
291 286 282 278 274 268 264 261 259 257 254 251 248 245 243 242 241 241 240 239 237 235 234 234 233 233 233 233 235 239 239 237 237 237 238 240 241 241 242 243 242 241
296 290 284 280 275 270 266 262 259 257 254 251 247 245 242 241 240 240 239 238 237 236 235 234 233 232 232 232 233 235 237 236 236 237 238 240 241 241 242 242 242 242
303 295 287 283 279 273 268 265 260 257 254 250 246 244 242 241 240 239 239 237 236 236 235 235 234 233 232 232 232 233 234 236 237 238 238 239 240 241 241 242 242 242
311 304 294 287 282 277 271 266 262 258 254 250 247 244 242 240 239 239 238 237 236 235 235 234 233 232 232 232 232 233 234 235 236 238 239 239 240 241 241 241 242 242
319 315 305 295 288 282 276 269 263 259 253 248 246 244 241 239 238 238 238 236 236 236 234 233 232 231 231 232 232 233 234 234 235 238 239 239 240 240 241 241 241 241
326 323 318 309 298 288 280 273 266 259 251 246 243 241 239 238 237 237 237 237 236 236 234 232 230 229 228 229 231 232 233 234 235 237 239 239 239 240 240 240 241 241
335 331 327 321 313 300 287 278 270 261 253 248 244 241 239 239 238 236 236 237 237 236 234 231 228 226 225 226 228 230 232 234 235 236 238 239 240 240 240 240 240 241